Tracking 18852 objects as of 23-Nov-2017
HD Live streaming from Space Station
objects crossing your sky now

COSMOS 2042

Track COSMOS 2042 now!
10-day predictions
COSMOS 2042 is classified as:


NORAD ID: 20236
Int'l Code: 1989-074E
Perigee: 1,408.4 km
Apogee: 1,417.5 km
Inclination: 82.6 °
Period: 113.9 minutes
Semi major axis: 7783 km
RCS: 1.1192 m2 (large)
Launch date: September 14, 1989
Source: Commonwealth of Independent States (former USSR) (CIS)
Launch site: PLESETSK MISSILE AND SPACE COMPLEX (PKMTR)
aabbcc
Your satellite tracking list
Your tracking list is empty




NASA's NSSDC Master Catalog

Two Line Element Set (TLE):
1 20236U 89074E   17326.39902179 +.00000027 +00000-0 +88997-4 0  9994
2 20236 082.5850 060.5817 0005851 050.2224 019.1832 12.64154222416334
Source of the keplerian elements: AFSPC